Location: Haram ta Haram Freeway
(35.0583°N, 51.4202°E)
Time: 22:01:01
(UTC+04:30)

Hubble Space Telescope - Pass Details

Date: 30 July 2021
Orbit: 535 x 539 km, 28.5° (Epoch: 18 September)

Event Time Altitude Azimuth Distance (km) Brightness Sun altitude
Rises 20:54:11 0° 260° (W) 2,668 5.2 -9.1°
Reaches altitude 10° 20:56:40 10° 248° (WSW) 1,776 4.0 -9.5°
Maximum altitude 21:00:10 27° 190° (S) 1,031 2.0 -10.2°
Enters shadow 21:02:55 14° 137° (SE) 1,526 2.5 -10.6°
